Hourly Data Report for September 30, 2017

All times are specified in Local Standard Time (LST). Add 1 hour to adjust for Daylight Saving Time where and when it is observed.

ALERT CLIMATE
NUNAVUT

82°30'00.000" N
62°20'00.000" W
65.40 m
2400305
71355
ZLT

Download Data

Hourly Data (September 2017)
Hourly Data Report for September 30, 2017
Temp Definition
°C
Dew Point Temp Definition
°C
Rel Hum Definition
%
Wind Dir Definition
10's deg

Wind Spd Definition
km/h
Visibility Definition
km
Stn Press Definition
kPa
Hmdx Definition


Wind Chill Definition


Weather Definition


TIME
00:00 -15.1 -16.4 90   0   100.86     LegendNANA
01:00 -14.8 -16.0 90   0   100.85     LegendNANA
02:00 -14.5 -15.7 90   0   100.83     LegendNANA
03:00 -14.1 -15.3 90   0   100.83     LegendNANA
04:00 -13.2 -14.4 91   0   100.83     LegendNANA
05:00 -13.2 -14.3 91   0   100.84     LegendNANA
06:00 -13.6 -14.8 91   0   100.83     LegendNANA
07:00 -13.6 -14.8 91   0   100.83     LegendNANA
08:00 -13.7 -14.9 91   0   100.85     LegendNANA
09:00 -13.4 -14.5 91   0   100.80     LegendNANA
10:00 -14.3 -15.6 90   0   100.82     LegendNANA
11:00 -14.5 -15.7 90   0   100.80     LegendNANA
12:00 -16.9 -18.6 87   0   100.82     LegendNANA
13:00 -17.2 -18.7 88 29 7   100.82   -22 LegendNANA
14:00 -17.7 -19.3 87 29 6   100.83   -22 LegendNANA
15:00 -17.6 -19.2 87 26 3   100.83   -20 LegendNANA
16:00 -18.7 -20.2 87 28 7   100.83   -24 LegendNANA
17:00 -18.3 -19.9 87   0   100.87     LegendNANA
18:00 -19.8 -21.8 84 28 7   100.86   -25 LegendNANA
19:00 -19.6 -21.4 86 27 8   100.87   -26 LegendNANA
20:00 -19.4 -21.2 85 28 6   100.88   -24 LegendNANA
21:00 -18.5 -20.2 86 27 4   100.87   -22 LegendNANA
22:00 -19.2 -20.8 87 27 4   100.87   -23 LegendNANA
23:00 -19.7 -21.4 87 29 6   100.87   -25 LegendNANA

Notes on Data Quality.

Legend

  • E = Estimated
  • M = Missing
  • NA = Not Available
  • ‡ = Partner data that is not subject to review by the National Climate Archives
Date modified: